Lid_Strength_Index
1 1 1 1 1 1 1 2 3 6 5 4 3 2 2 2 2 4 4 6 7 7 7 6 5 5 5 4 4 4 4 3 3 3 3 3 3 3
1 1 1 1 1 1 1 2 2 3 5 3 3 3 2 2 3 4 5 6 7 8 8 7 7 6 6 5 5 4 5 4 4 4 4 5 5 5
1 1 1 1 1 1 1 1 2 2 4 3 3 3 3 3 5 5 5 6 7 8 8 8 8 8 7 7 7 6 7 6 6 7 7 7 7 6
1 1 1 1 1 1 1 2 2 2 3 4 3 4 5 5 5 7 6 6 6 8 9 8 8 9 9 9 9 9 9 8 8 8 8 8 8 8
1 1 2 1 2 2 2 2 2 2 2 3 4 5 6 8 8 8 8 7 6 6 8 9 9 9 9 9 10 10 9 8 8 9 9 9 9 9
1 1 1 1 2 2 2 2 2 2 3 4 4 6 8 9 7 9 9 8 8 6 7 9 9 9 9 10 10 10 10 9 9 9 9 9 10 10
1 1 1 2 4 4 2 2 2 3 4 5 6 7 10 12 10 9 9 9 9 8 9 10 11 11 11 10 10 9 10 9 9 9 9 10 10 10
2 1 1 5 6 8 8 7 4 3 4 4 5 7 9 9 10 11 11 14 14 10 12 13 11 12 11 11 10 10 9 9 9 9 10 10 10 10
2 2 2 2 6 4 8 10 12 13 11 4 5 8 12 12 12 13 14 15 15 13 14 15 13 13 11 11 10 11 11 11 10 10 10 10 10 10
2 2 2 3 3 5 12 15 15 15 14 13 13 14 13 13 13 13 14 14 14 13 13 16 14 14 13 12 11 11 10 10 10 10 10 10 10 9
12 12 11 11 12 11 14 16 17 17 15 14 15 15 14 14 14 14 15 15 16 16 13 16 16 15 15 14 14 11 11 11 10 10 10 9 9 9
15 14 14 14 14 13 15 16 18 18 17 17 18 16 16 16 16 15 15 16 16 17 15 16 16 16 17 16 15 15 14 11 10 11 10 10 9 10
16 16 16 14 14 14 15 16 17 17 17 16 17 17 16 16 16 16 16 16 17 17 16 16 17 17 18 18 16 15 15 14 14 12 10 9 7 7
17 16 16 15 15 16 16 16 16 16 17 17 17 17 17 17 17 17 17 17 17 17 16 16 17 18 18 19 18 16 15 14 14 13 11 9 7 6
18 17 17 17 17 17 16 16 16 16 17 17 18 18 18 17 17 17 16 16 16 16 15 15 16 17 17 18 19 17 17 15 13 12 11 10 9 8
19 18 18 18 18 17 18 18 18 18 18 18 19 18 18 18 17 17 17 17 18 18 16 16 16 17 18 18 17 18 16 17 14 12 11 10 8 6
18 18 18 18 18 19 19 19 18 18 19 19 19 19 19 18 18 18 18 19 21 20 20 17 16 16 16 17 18 17 16 15 13 12 10 10 8 6
16 17 18 18 18 18 19 19 19 20 19 19 19 19 20 20 20 19 19 20 20 19 19 18 18 17 17 15 13 15 14 13 11 11 10 10 10 7
19 18 19 19 19 19 19 19 20 20 19 20 21 21 22 21 20 20 20 20 20 19 19 17 18 18 20 22 16 11 15 14 13 12 11 10 10 8
18 19 19 19 19 19 20 20 20 20 21 21 21 22 22 22 22 22 21 22 21 20 20 19 19 18 18 20 20 16 10 12 13 12 11 8 6 4
19 19 20 20 20 20 21 21 22 22 22 23 23 23 25 22 23 22 22 23 22 21 21 20 18 16 15 15 18 17 14 9 8 10 9 8 8 7
20 20 20 21 21 21 22 23 24 24 24 24 26 26 26 25 25 24 25 24 21 20 20 18 16 16 16 16 17 16 14 11 9 7 6 6 8 9
22 21 21 22 22 23 23 24 25 26 25 25 24 24 28 27 23 22 21 21 20 19 19 18 17 15 16 16 16 16 15 13 11 10 9 6 4 3